When you browse on this site, cookies collect data to enhance your experience and personalize the content and advertising you see.
Visit our Privacy Policy to learn more. By continuing to use the site, you agree to this use of cookies and data.

Stündliche Wetter Bolshie Koryaki

Heute, 26 September, Samstag

Zeit Temperatur Niederschläge Wind Luftdruck Luftfeuchtigkeit
00:00 +17°C° 0 mm 4 m/S 743 mmHg 69%
01:00 +15°C° 0 mm 4 m/S 743 mmHg 68%
02:00 +14°C° 0 mm 3 m/S 743 mmHg 70%
03:00 +14°C° 0 mm 3 m/S 743 mmHg 71%
04:00 +13°C° 0 mm 3 m/S 743 mmHg 73%
05:00 +12°C° 0 mm 3 m/S 743 mmHg 74%
06:00 +13°C° 0 mm 4 m/S 743 mmHg 72%
07:00 +14°C° 0 mm 4 m/S 743 mmHg 69%
08:00 +14°C° 0 mm 4 m/S 743 mmHg 66%
09:00 +16°C° 0 mm 5 m/S 743 mmHg 63%
10:00 +17°C° 0 mm 5 m/S 744 mmHg 60%
11:00 +20°C° 0 mm 5 m/S 744 mmHg 57%
12:00 +21°C° 0 mm 5 m/S 744 mmHg 55%
13:00 +21°C° 0 mm 5 m/S 744 mmHg 54%
14:00 +22°C° 0 mm 5 m/S 744 mmHg 53%
15:00 +20°C° 0 mm 4 m/S 744 mmHg 58%
16:00 +19°C° 0 mm 4 m/S 744 mmHg 63%
17:00 +18°C° 0 mm 3 m/S 744 mmHg 68%
18:00 +17°C° 0 mm 3 m/S 744 mmHg 69%
19:00 +17°C° 0 mm 4 m/S 744 mmHg 69%
20:00 +15°C° 0 mm 4 m/S 744 mmHg 70%
21:00 +15°C° 0 mm 4 m/S 745 mmHg 70%
22:00 +14°C° 0 mm 4 m/S 745 mmHg 71%
23:00 +14°C° 0 mm 4 m/S 745 mmHg 71%

Morgen, 27 September, Sonntag

Zeit Temperatur Niederschläge Wind Luftdruck Luftfeuchtigkeit
00:00 +14°C° 0 mm 4 m/S 745 mmHg 71%
01:00 +13°C° 0 mm 4 m/S 745 mmHg 70%
02:00 +13°C° 0 mm 4 m/S 745 mmHg 69%
03:00 +12°C° 0 mm 4 m/S 745 mmHg 69%
04:00 +12°C° 0 mm 4 m/S 745 mmHg 69%
05:00 +12°C° 0 mm 4 m/S 745 mmHg 69%
06:00 +12°C° 0 mm 4 m/S 745 mmHg 67%
07:00 +13°C° 0 mm 4 m/S 745 mmHg 65%
08:00 +14°C° 0 mm 5 m/S 746 mmHg 63%
09:00 +15°C° 0 mm 5 m/S 746 mmHg 59%
10:00 +17°C° 0 mm 5 m/S 746 mmHg 55%
11:00 +19°C° 0 mm 5 m/S 746 mmHg 51%
12:00 +19°C° 0 mm 5 m/S 746 mmHg 50%
13:00 +20°C° 0 mm 5 m/S 746 mmHg 50%
14:00 +20°C° 0 mm 6 m/S 745 mmHg 49%
15:00 +19°C° 0 mm 5 m/S 745 mmHg 53%
16:00 +17°C° 0 mm 5 m/S 745 mmHg 57%
17:00 +15°C° 0 mm 5 m/S 745 mmHg 60%
18:00 +14°C° 0.3 mm 5 m/S 745 mmHg 65%
19:00 +13°C° 0.3 mm 5 m/S 746 mmHg 70%
20:00 +12°C° 0.3 mm 5 m/S 746 mmHg 75%
21:00 +12°C° 1.1 mm 5 m/S 746 mmHg 80%
22:00 +12°C° 1.1 mm 5 m/S 746 mmHg 85%
23:00 +12°C° 1.1 mm 5 m/S 746 mmHg 90%

übermorgen, 28 September, Montag

Zeit Temperatur Niederschläge Wind Luftdruck Luftfeuchtigkeit
00:00 +12°C° 1 mm 4 m/S 745 mmHg 91%
01:00 +12°C° 1 mm 4 m/S 745 mmHg 92%
02:00 +12°C° 1 mm 4 m/S 745 mmHg 93%
03:00 +12°C° 0.4 mm 4 m/S 745 mmHg 94%
04:00 +12°C° 0.4 mm 4 m/S 745 mmHg 94%
05:00 +12°C° 0.4 mm 4 m/S 745 mmHg 95%
06:00 +13°C° 0.1 mm 4 m/S 745 mmHg 94%
07:00 +13°C° 0.1 mm 4 m/S 746 mmHg 94%
08:00 +13°C° 0.1 mm 4 m/S 746 mmHg 93%
09:00 +13°C° 0.1 mm 4 m/S 746 mmHg 88%
10:00 +13°C° 0.1 mm 4 m/S 747 mmHg 84%
11:00 +13°C° 0.1 mm 4 m/S 747 mmHg 80%
12:00 +14°C° 0 mm 4 m/S 748 mmHg 75%
13:00 +16°C° 0 mm 3 m/S 748 mmHg 71%
14:00 +16°C° 0 mm 3 m/S 748 mmHg 67%
15:00 +14°C° 0 mm 3 m/S 749 mmHg 71%
16:00 +15°C° 0 mm 2 m/S 749 mmHg 75%
17:00 +14°C° 0 mm 2 m/S 749 mmHg 79%
18:00 +13°C° 0 mm 2 m/S 749 mmHg 81%
19:00 +13°C° 0 mm 2 m/S 749 mmHg 82%
20:00 +12°C° 0 mm 2 m/S 750 mmHg 84%
21:00 +12°C° 0 mm 2 m/S 750 mmHg 84%
22:00 +12°C° 0 mm 2 m/S 750 mmHg 84%
23:00 +12°C° 0 mm 2 m/S 750 mmHg 84%

29 September, Dienstag

Zeit Temperatur Niederschläge Wind Luftdruck Luftfeuchtigkeit
00:00 +12°C° 0 mm 2 m/S 750 mmHg 85%
01:00 +10°C° 0 mm 2 m/S 749 mmHg 85%
02:00 +10°C° 0 mm 2 m/S 749 mmHg 86%
03:00 +10°C° 0 mm 2 m/S 749 mmHg 86%
04:00 +10°C° 0 mm 2 m/S 749 mmHg 86%
05:00 +11°C° 0 mm 1 m/S 749 mmHg 86%
06:00 +12°C° 0 mm 2 m/S 749 mmHg 85%
07:00 +12°C° 0 mm 2 m/S 748 mmHg 84%
08:00 +13°C° 0 mm 2 m/S 748 mmHg 83%
09:00 +14°C° 0 mm 2 m/S 748 mmHg 81%
10:00 +15°C° 0 mm 2 m/S 748 mmHg 79%
11:00 +16°C° 0 mm 2 m/S 748 mmHg 77%
12:00 +17°C° 0 mm 2 m/S 748 mmHg 75%
13:00 +18°C° 0 mm 2 m/S 747 mmHg 72%
14:00 +18°C° 0 mm 2 m/S 747 mmHg 70%
15:00 +17°C° 0 mm 2 m/S 747 mmHg 73%
16:00 +16°C° 0 mm 2 m/S 747 mmHg 76%
17:00 +15°C° 0 mm 2 m/S 747 mmHg 80%
18:00 +14°C° 0 mm 2 m/S 747 mmHg 82%
19:00 +13°C° 0 mm 2 m/S 747 mmHg 85%
20:00 +12°C° 0 mm 2 m/S 747 mmHg 87%
21:00 +12°C° 0 mm 2 m/S 747 mmHg 86%
22:00 +10°C° 0 mm 2 m/S 747 mmHg 85%
23:00 +10°C° 0 mm 2 m/S 746 mmHg 84%

30 September, Mittwoch

Zeit Temperatur Niederschläge Wind Luftdruck Luftfeuchtigkeit
00:00 +10°C° 0 mm 2 m/S 746 mmHg 83%
01:00 +9°C° 0 mm 2 m/S 746 mmHg 82%
02:00 +9°C° 0 mm 2 m/S 746 mmHg 81%
03:00 +9°C° 0 mm 2 m/S 746 mmHg 79%
04:00 +9°C° 0 mm 3 m/S 746 mmHg 78%
05:00 +9°C° 0 mm 3 m/S 746 mmHg 76%
06:00 +9°C° 0.1 mm 3 m/S 746 mmHg 76%
07:00 +10°C° 0.1 mm 3 m/S 746 mmHg 76%
08:00 +10°C° 0.1 mm 3 m/S 746 mmHg 77%
09:00 +11°C° 0 mm 3 m/S 746 mmHg 71%
10:00 +12°C° 0 mm 4 m/S 746 mmHg 65%
11:00 +13°C° 0 mm 4 m/S 746 mmHg 60%
12:00 +13°C° 0 mm 4 m/S 746 mmHg 59%
13:00 +13°C° 0 mm 4 m/S 746 mmHg 58%
14:00 +13°C° 0 mm 4 m/S 745 mmHg 58%
15:00 +13°C° 0 mm 4 m/S 745 mmHg 59%
16:00 +12°C° 0 mm 4 m/S 745 mmHg 61%
17:00 +12°C° 0 mm 3 m/S 745 mmHg 63%
18:00 +12°C° 0 mm 3 m/S 745 mmHg 62%
19:00 +11°C° 0 mm 3 m/S 745 mmHg 61%
20:00 +11°C° 0 mm 4 m/S 746 mmHg 60%
21:00 +11°C° 0 mm 4 m/S 745 mmHg 59%
22:00 +10°C° 0 mm 3 m/S 745 mmHg 59%
23:00 +10°C° 0 mm 3 m/S 745 mmHg 59%

1 Oktober, Donnerstag

Zeit Temperatur Niederschläge Wind Luftdruck Luftfeuchtigkeit
00:00 +10°C° 0 mm 4 m/S 745 mmHg 59%
01:00 +10°C° 0 mm 4 m/S 745 mmHg 59%
02:00 +10°C° 0 mm 4 m/S 744 mmHg 59%
03:00 +10°C° 0 mm 4 m/S 744 mmHg 57%
04:00 +11°C° 0 mm 4 m/S 744 mmHg 56%
05:00 +10°C° 0 mm 5 m/S 744 mmHg 54%
06:00 +10°C° 0 mm 5 m/S 744 mmHg 55%
07:00 +10°C° 0 mm 5 m/S 744 mmHg 56%
08:00 +12°C° 0 mm 5 m/S 744 mmHg 56%
09:00 +13°C° 0 mm 5 m/S 744 mmHg 55%
10:00 +14°C° 0 mm 5 m/S 744 mmHg 54%
11:00 +15°C° 0 mm 5 m/S 744 mmHg 52%
12:00 +14°C° 0 mm 5 m/S 744 mmHg 53%
13:00 +14°C° 0 mm 5 m/S 744 mmHg 54%
14:00 +14°C° 0 mm 5 m/S 744 mmHg 55%
15:00 +14°C° 0 mm 4 m/S 744 mmHg 58%
16:00 +13°C° 0 mm 4 m/S 744 mmHg 61%
17:00 +13°C° 0 mm 4 m/S 744 mmHg 64%
18:00 +12°C° 0 mm 4 m/S 744 mmHg 64%
19:00 +12°C° 0 mm 4 m/S 745 mmHg 65%
20:00 +12°C° 0 mm 4 m/S 745 mmHg 66%
21:00 +12°C° 0 mm 4 m/S 745 mmHg 67%
22:00 +12°C° 0 mm 5 m/S 745 mmHg 69%
23:00 +12°C° 0 mm 5 m/S 745 mmHg 71%
Mehr zeigen